User: anonymous   Login
Location: S�tio Afonso Gruber
(26.1760°S, 49.5250°W)
Time: 08:49:28
(UTC+00:00)
Language:

KKS-1 - Orbit

View from above orbital plane
View from above orbital plane
View from above satellite
View from above satellite

Ground track
Ground track

The orbit data is extracted from the following two-line orbital elements,

1 33499U 09002H   22329.77553037  .00000768  00000-0  11840-3 0  9992
2 33499  98.1944 214.3028 0009392 151.3610 208.8117 14.76288420744043
Epoch (UTC): 25 November 2022 18:36:45
Eccentricity: 0.0009392
inclination: 98.1944°
perigee height: 634 km
apogee height: 647 km
right ascension of ascending node: 214.3028°
argument of perigee: 151.3610°
revolutions per day: 14.76288420
mean anomaly at epoch: 208.8117°
orbit number at epoch: 74404

The dashed part of the orbit path shows where the satellite is in the earth's shadow,  

DLR